Theta_e
302 296 293 296 295 291 292 289 287 289 294 292 291 292 297 300 299 299 298 298 299 300 304 306 310 310 314 319 319 317 317 319 320 317 316 318 320 323 321 323 325 325 325 323
299 293 296 298 298 293 292 290 287 291 294 292 291 291 294 296 297 301 302 301 300 300 302 304 306 307 310 314 319 318 317 318 319 319 319 317 318 318 321 321 321 324 324 323
293 293 299 298 296 295 291 288 288 288 292 292 290 290 291 297 297 299 300 302 302 302 303 302 303 304 304 307 312 318 318 318 319 319 316 316 316 315 315 317 319 321 322 322
295 297 296 295 294 296 290 293 292 290 289 283 289 281 286 291 292 296 299 300 302 304 305 305 304 302 302 303 305 311 318 318 318 318 317 316 317 315 316 317 318 319 320 321
291 292 293 292 294 297 292 296 293 292 287 284 284 283 285 288 290 292 295 297 299 301 303 303 303 303 303 307 308 308 310 317 319 318 319 317 316 317 317 317 316 317 318 320
294 298 297 295 297 298 296 293 292 289 289 283 286 285 282 287 291 292 293 296 297 297 299 301 302 305 303 301 301 304 306 308 317 318 318 317 316 317 317 317 316 316 317 318
290 293 294 297 292 294 295 290 280 281 281 279 283 284 287 289 291 293 294 294 295 295 297 299 301 299 299 300 300 301 301 300 303 310 316 317 317 317 317 317 317 317 316 315
285 283 291 294 293 291 293 291 280 274 276 278 283 280 284 291 294 294 295 295 295 295 297 298 300 297 297 298 298 299 299 299 299 300 300 300 301 302 303 305 306 309 312 316
285 285 290 294 295 296 292 288 289 280 271 274 279 282 287 290 290 291 293 293 294 296 297 297 296 296 297 297 297 297 298 298 299 300 300 299 299 300 300 301 302 302 304 305
287 283 289 292 296 295 294 295 285 280 271 269 277 278 281 285 289 290 291 294 295 294 295 295 296 296 296 296 297 297 298 298 299 299 299 298 298 299 299 300 299 300 301 302
289 286 283 290 290 290 291 290 289 288 281 275 273 278 285 289 290 291 291 293 294 294 294 295 296 296 296 295 296 297 298 298 298 297 297 297 297 297 298 298 298 298 299 300
293 288 283 287 287 289 294 290 291 284 280 282 279 281 287 289 289 290 291 292 293 295 294 294 293 293 293 294 294 295 296 297 297 295 295 294 295 295 295 295 296 297 296 297
294 287 281 283 287 288 289 291 293 292 285 282 279 282 290 289 288 290 290 291 293 292 293 291 290 291 291 292 293 294 295 296 296 293 292 292 292 292 292 294 295 295 294 294
297 289 285 281 284 288 287 290 291 290 285 285 284 286 287 286 288 289 289 290 291 292 293 289 289 290 290 291 292 293 293 295 295 292 290 290 290 291 292 293 293 293 292 292
293 286 288 288 286 288 288 289 290 288 289 285 287 286 290 292 289 290 290 289 291 292 291 290 290 290 290 290 291 292 292 293 294 291 290 289 290 291 291 291 291 291 290 290
293 286 287 285 288 285 286 289 290 291 290 290 289 287 294 295 295 291 291 290 290 291 293 293 292 291 290 291 291 292 292 292 293 291 289 289 290 289 288 289 288 288 288 288
289 288 285 281 287 287 281 285 287 289 292 291 286 291 296 295 295 294 290 290 291 293 293 295 294 293 292 291 292 291 293 291 292 291 289 288 288 286 286 286 286 286 286 287
286 287 286 282 279 276 285 291 291 289 291 293 293 293 295 295 297 294 293 293 294 294 294 295 296 295 291 290 290 291 291 290 290 289 288 287 286 285 285 284 284 284 284 284
290 288 284 280 280 282 281 283 286 286 286 292 291 294 295 296 291 293 295 297 295 295 296 295 295 292 291 290 292 290 289 288 288 287 286 286 285 284 284 284 284 284 284 284
287 290 285 282 278 275 284 288 288 290 283 292 293 293 293 294 287 292 298 295 295 292 290 290 290 288 287 287 288 288 286 286 286 286 286 285 285 284 284 284 284 283 282 285
281 283 282 282 279 280 285 282 289 280 282 291 291 292 293 291 293 293 286 284 285 284 284 285 285 284 283 284 286 285 285 285 284 284 284 284 284 283 283 284 283 283 283 283
282 281 281 282 280 278 283 284 282 285 282 282 285 286 288 284 283 282 282 281 281 280 280 281 281 281 281 282 282 281 281 282 282 282 282 282 281 282 283 281 283 282 281 281
280 284 281 284 283 284 282 283 283 284 283 281 281 282 284 281 279 279 278 278 278 278 278 278 278 278 279 279 279 279 278 279 278 277 276 277 279 280 281 280 281 281 282 282
281 283 282 284 285 283 281 280 280 281 279 278 279 279 280 278 278 277 277 276 276 276 274 274 274 274 274 275 275 274 274 274 271 271 272 274 275 275 276 278 280 280 281 281
282 283 281 281 277 278 277 278 277 277 278 276 276 276 276 276 274 275 274 273 273 272 272 272 271 271 270 270 269 269 270 270 269 270 271 272 272 273 274 276 277 278 279 281
281 281 282 283 281 281 277 277 277 275 274 275 275 273 272 272 271 271 271 270 269 269 269 268 268 266 266 266 266 266 266 267 266 267 268 269 269 270 271 271 272 277 279 280
Wind_Speed
4 5 17 14 8 3 5 4 5 3 5 3 7 9 16 8 6 9 10 9 9 10 10 9 9 10 9 8 11 14 13 14 8 5 4 5 8 7 4 6 7 9 9 9
5 19 7 5 4 4 4 5 5 4 4 4 7 9 12 10 8 13 16 12 11 7 8 11 8 6 7 9 13 11 13 11 11 9 6 4 4 4 4 5 7 10 9 9
14 2 12 9 6 11 5 7 4 4 4 1 5 12 8 11 8 8 10 11 9 13 14 9 9 7 6 7 9 11 13 12 11 10 4 3 2 1 2 4 5 9 10 9
12 9 11 5 13 11 15 7 4 1 2 5 2 11 7 6 9 9 11 13 17 16 14 11 10 7 8 9 5 8 8 9 10 10 8 8 8 7 6 4 4 5 9 11
8 11 9 13 12 13 7 8 8 4 2 4 3 5 5 2 9 7 12 15 13 12 11 11 9 8 5 4 3 4 5 5 4 8 8 7 5 4 1 2 4 5 5 9
7 4 12 8 9 14 7 6 5 4 3 9 9 8 5 7 9 8 5 8 9 9 10 9 5 6 6 5 5 7 8 4 5 6 6 8 8 6 3 4 4 4 4 4
5 5 3 6 7 5 6 9 2 3 6 11 4 9 18 5 9 9 9 10 9 9 7 7 9 7 7 8 7 7 7 6 6 7 5 5 5 5 5 5 3 4 3 3
13 12 11 6 9 9 19 14 7 9 7 4 4 12 9 8 9 8 10 8 7 4 3 7 8 8 8 8 7 8 8 7 6 7 7 5 5 3 1 1 2 3 3 4
14 14 1 6 6 14 11 17 8 6 4 3 7 8 9 10 9 9 11 3 7 7 7 7 7 7 8 7 8 8 8 7 7 7 6 6 5 5 3 3 2 1 3 4
4 6 6 7 5 10 14 12 7 2 5 6 5 6 9 2 9 6 5 7 7 4 5 7 7 8 6 6 6 7 7 8 7 7 6 5 5 5 4 4 4 4 4 5
3 4 3 7 14 15 8 15 5 5 6 6 2 9 9 16 13 10 8 7 7 8 8 7 7 6 6 6 6 7 7 8 7 6 6 6 5 4 4 3 2 3 4 5
13 3 5 14 0 1 21 9 17 10 15 9 0 11 4 6 7 6 8 10 9 10 9 8 8 7 7 7 6 7 7 7 7 6 6 5 4 3 3 2 3 4 4 4
17 7 5 5 2 2 10 17 20 19 3 18 6 12 3 7 6 6 9 8 9 5 8 7 6 8 8 7 7 7 7 7 7 6 6 4 3 3 3 3 3 4 5 5
14 11 12 15 15 8 12 18 18 20 15 18 18 26 7 3 7 7 7 8 5 5 7 7 7 10 8 8 8 8 7 7 7 6 6 5 2 0 2 3 4 4 4 5
11 13 17 16 10 14 18 24 25 22 27 18 24 22 22 14 10 9 7 7 6 7 9 11 12 12 10 8 7 7 7 7 7 7 6 5 3 2 2 3 5 5 5 6
18 13 7 15 24 6 19 22 21 27 27 24 22 15 16 16 10 10 11 8 8 10 12 14 15 10 9 12 11 9 8 8 7 7 7 6 4 2 2 4 5 6 6 7
14 13 12 14 19 22 14 17 20 19 20 20 24 29 24 23 20 16 7 8 13 14 14 16 18 17 14 13 13 11 12 7 8 7 7 5 4 3 4 5 6 7 7 6
9 17 11 14 7 19 7 11 16 19 21 23 21 15 19 26 24 4 10 16 18 14 14 16 14 12 10 8 9 8 8 8 8 8 7 5 4 4 5 6 7 7 5 7
11 8 12 16 17 13 1 6 19 19 27 23 18 24 29 23 5 10 16 14 14 18 17 12 8 7 5 8 11 9 8 8 7 7 6 6 5 5 6 7 8 7 7 9
11 14 9 5 14 20 12 19 8 8 14 18 22 23 19 19 6 19 20 10 13 4 4 4 1 2 3 3 5 8 7 6 6 4 4 4 5 5 7 8 9 5 6 12
10 13 17 14 14 5 8 3 10 11 11 16 12 17 22 21 16 11 9 11 10 10 11 9 12 10 7 7 7 8 6 4 3 4 6 6 6 7 8 9 7 9 10 11
7 9 12 12 13 14 7 5 13 6 1 4 4 5 3 7 10 10 11 11 11 12 12 11 9 9 9 10 9 7 8 6 7 6 6 7 7 7 7 8 10 9 8 11
6 12 6 7 3 4 3 2 2 4 4 3 5 4 11 13 10 8 8 9 9 9 9 10 9 8 9 11 10 7 8 8 9 8 9 9 9 9 9 9 11 10 9 10
5 2 4 5 7 5 2 6 6 5 9 8 7 9 11 12 10 9 8 7 7 8 9 8 9 9 8 9 8 7 8 9 8 9 10 9 9 10 9 8 9 10 10 11
6 6 7 1 2 5 6 7 7 10 11 13 10 12 13 10 11 9 8 9 9 9 9 8 8 8 8 9 9 6 9 10 10 10 9 10 9 9 11 10 10 11 12 14
6 4 4 7 5 1 5 7 7 10 10 9 9 11 13 12 10 8 8 8 9 9 10 10 10 10 10 10 10 10 9 9 10 11 9 9 10 9 10 11 13 20 27 30
Wind_Direction
178 174 206 197 200 169 151 185 184 214 258 208 240 257 267 244 239 258 249 249 259 252 251 243 241 218 216 205 197 200 200 210 185 178 177 215 223 219 212 209 208 208 213 205
186 224 195 164 184 183 175 191 219 274 259 174 280 256 255 247 220 226 241 248 240 247 263 264 253 233 211 213 211 207 210 199 196 198 203 186 178 212 207 185 203 215 214 211
202 268 159 169 179 206 205 193 164 205 346 324 321 271 228 262 212 228 237 240 245 236 249 251 262 230 226 226 210 204 209 201 199 193 129 105 90 79 139 208 210 216 215 213
232 218 174 171 212 194 226 146 158 181 80 243 19 282 258 242 252 227 229 228 239 245 247 252 249 237 214 230 225 217 203 192 193 173 181 183 201 207 211 200 209 208 203 219
198 174 178 206 207 184 219 153 174 146 125 2 212 291 255 286 263 255 239 230 237 240 236 243 243 227 193 132 148 222 209 207 185 182 188 191 199 217 171 207 221 225 218 223
208 217 191 193 182 185 135 83 64 62 86 257 226 196 218 204 218 246 270 253 255 241 226 233 217 154 127 111 99 94 100 82 156 163 166 176 188 207 218 237 235 249 230 229
177 189 222 149 145 143 166 130 121 206 210 240 351 197 253 270 272 236 257 267 284 273 219 185 153 136 129 125 119 111 108 94 96 119 153 176 199 206 226 255 243 258 258 240
194 209 180 182 196 185 198 177 162 189 203 227 130 233 253 233 264 266 248 249 287 315 178 156 151 145 140 134 126 122 119 109 98 96 92 84 86 98 80 347 343 324 312 301
195 225 69 179 166 158 186 215 164 104 15 73 213 289 295 259 260 240 254 272 244 208 174 161 156 150 142 147 143 140 130 117 111 112 106 87 81 80 76 47 45 340 318 311
231 211 190 183 139 208 181 168 175 182 170 244 254 266 235 181 238 255 220 231 228 193 172 163 166 167 171 155 147 142 134 129 124 113 106 98 89 77 70 65 38 6 339 336
198 162 270 138 202 178 165 200 197 173 170 189 254 254 214 209 204 220 220 219 214 204 193 185 192 187 168 157 154 138 132 131 125 121 118 114 109 99 94 86 46 8 341 339
199 119 186 204 20 234 208 185 201 208 212 239 203 259 167 201 229 208 232 215 213 209 198 201 192 178 178 178 164 160 153 146 147 139 128 123 119 102 83 48 12 355 338 323
183 201 176 173 316 307 207 205 203 220 44 218 189 262 253 169 182 219 231 233 234 208 188 203 205 203 197 194 186 181 173 163 158 145 135 122 88 57 18 341 331 335 328 321
182 201 224 223 219 145 205 205 210 208 223 230 220 251 227 200 205 240 249 259 259 232 207 194 211 218 208 199 192 186 187 175 168 159 149 132 134 149 288 294 302 305 305 306
196 226 221 239 257 191 205 209 208 208 220 218 235 237 251 241 229 227 238 260 254 214 205 214 217 221 216 203 202 199 190 179 173 173 164 173 184 213 276 293 297 296 294 287
217 240 230 244 236 222 226 213 213 218 225 231 250 258 256 258 239 213 214 211 233 229 220 225 229 229 216 209 207 196 192 190 171 182 191 189 198 235 283 296 301 300 286 277
200 220 219 239 225 220 221 217 215 217 225 219 231 237 249 262 258 236 211 207 227 231 221 221 226 226 224 209 202 196 199 170 184 184 194 196 200 260 287 293 294 287 278 270
219 214 220 235 216 233 211 191 224 226 228 229 239 253 243 247 258 223 191 212 229 233 232 231 227 226 222 201 192 192 173 179 176 194 198 202 211 257 285 290 281 276 270 278
226 217 233 236 241 261 319 189 190 195 231 222 216 235 247 259 8 278 229 221 224 219 234 239 227 218 189 192 205 181 164 177 177 202 210 218 222 258 277 278 276 274 285 288
215 237 232 173 229 244 251 227 200 177 239 225 216 233 244 252 214 254 269 195 227 237 353 334 30 53 44 353 153 139 130 132 200 248 269 283 300 289 282 274 280 270 257 276
208 220 225 232 228 272 247 153 121 169 225 234 213 219 232 239 237 275 79 55 62 64 49 48 61 66 47 34 72 80 95 76 10 337 330 316 293 274 266 273 267 272 271 275
209 194 218 234 244 244 162 67 177 210 87 132 131 197 167 75 63 61 63 56 43 45 36 27 52 49 39 38 45 45 46 4 1 346 321 297 282 275 275 267 279 270 269 274
226 192 205 202 239 323 154 87 39 278 103 57 106 72 121 113 92 85 71 61 50 45 39 26 26 36 43 34 33 38 9 357 339 327 308 300 296 295 289 283 288 287 275 271
272 192 200 135 195 182 360 60 45 25 92 68 39 75 78 92 86 86 80 64 54 48 33 16 20 28 25 23 20 14 347 336 327 311 307 304 297 294 287 280 279 278 276 274
190 145 170 197 97 96 35 67 89 83 88 81 62 66 68 79 68 71 55 40 33 23 14 19 20 9 359 354 348 343 335 331 321 312 306 301 294 295 295 283 282 277 271 270
182 156 191 225 128 60 135 125 126 100 88 84 104 83 69 71 60 51 60 40 21 7 4 5 4 354 340 337 330 326 330 328 319 313 311 306 302 297 294 294 290 275 280 279